Regional Weather Roundup
Issued by NWS

Home | Current Version | Previous Version | Text Only | Print | Product List | Glossary On
Versions: 1 2 3 4 5 6 7 8 9 10 11 12 13 14 15 16 17 18 19 20 21 22 23 24 25 26 27 28 29 30 31 32 33 34 35 36 37 38 39 40 41 42 43 44 45 46 47 48 49 50
000
ASUS42 KKEY 300710
RWRKEY

FLORIDA REGIONAL WEATHER ROUNDUP FOR THE FLORIDA KEYS
NATIONAL WEATHER SERVICE KEY WEST FLORIDA
300 AM EDT SUN AUG 30 2015

...SOUTH FLORIDA AND THE KEYS...

CITY           SKY/WX    TMP DP  RH WIND       PRES   REMARKS
FORT MYERS     CLOUDY    75  73  93 NE10      29.93F
SW REGIONAL AP CLOUDY    76  72  87 NE9       29.93F
NAPLES         MOCLDY    76  73  91 NE10      29.93F
MIAMI          TSTM      77  75  93 SW12      29.97R FOG
WEST KENDALL   LGT RAIN  74  32  21 NW6       29.96S
HOMESTEAD      TSTM      75  72  88 NE7       29.93F
MARATHON       CLOUDY   N/A N/A N/A E13       29.87F
BOCA CHICA NAS MOCLDY    79  76  90 NE13      29.86F
KEY WEST INTL  PTCLDY    81  77  88 NE9       29.86F

...INTERNATIONAL WEATHER...

CITY           SKY/WX    TMP DP  RH WIND       PRES   REMARKS
NASSAU BAHAMAS NOT AVBL
CANCUN MEXICO  MOCLDY    82  77  83 NE6       29.91F HX  91
COZUMEL MEXICO PTCLDY    77  77 100 NE6       29.91F

ADJACENT COASTAL WATERS...

STATION/POSITION TIME  SKY/WX   TEMP    WIND        PRES    WAVE
                                AIR SEA DIR/SP/G            HT/PER
                 (UTC)          (F)     (DEG/KT/KT) (MB)    (FT/S)
PULASKI SHOAL LI 0600                                 N/A
SAND KEY         0650            84      50/ 17     1010.6F
SOMBRERO KEY     NOT AVBL
LONG KEY         0700            83 87   70/ 18/ 20 1012.4F
MOLASSES REEF    0700            84 87  150/ 21/ 25 1012.4F
FOWEY ROCKS      NOT AVBL

$$



USA.gov is the U.S. government's official web portal to all federal, state and local government web resources and services.